Weather History for Fayetteville, AR

Change the Weather History Date:

Thursday, November 29, 2012

  Actual Average Record
Temperature  
Mean Temperature 50 °F 42 °F  
Max Temperature 63 °F 53 °F 72 °F (2006)
Min Temperature 37 °F 31 °F 4 °F (1976)
Degree Days  
Heating Degree Days 15 23  
Month to date heating degree days 505  
Since 1 July heating degree days 805  
Moisture  
Dew Point 30 °F    
Average Humidity 45    
Maximum Humidity 73    
Minimum Humidity 30    
Precipitation  
Precipitation 0.00 in 0.14 in 1.74 in (2006)
Month to date precipitation 4.10  
Year to date precipitation 45.14  
Sea Level Pressure  
Sea Level Pressure 30.17 in    
Wind  
Wind Speed 9 mph (South)    
Max Wind Speed 21 mph    
Max Gust Speed 28 mph    
Visibility 10 miles    
Events      
T = Trace of Precipitation, MM = Missing Value Source: NWS Daily Summary

Daily Weather History Graph

Daily Weather History Graph

Search for Another Location

Airport:

Trip Planner

Search our weather history database for the weather conditions in past years. The results will help you decide how hot, cold, wet, or windy it might be!

Date:

Astronomy

Nov. 29, 2012 Rise Set
Actual Time 7:07 AM CST 5:02 PM CST
Civil Twilight 6:39 AM CST 5:30 PM CST
Nautical Twilight 6:07 AM CST 6:02 PM CST
Astronomical Twilight 5:36 AM CST 6:33 PM CST
Moon 6:06 PM CST (11/29) 7:54 AM CST (11/29)
Length of Visible Light 10h 51m
Length of Day
9h 55m
Full, 99% of the Moon is Illuminated
Nov 29
Full
Dec 6
Last Quarter
Dec 13
New
Dec 19
First Quarter
Dec 28
Full

Hourly Weather History & Observations

Time (CST) Temp. Windchill Dew Point Humidity Pressure Visibility Wind Dir Wind Speed Gust Speed Precip Events Conditions
12:53 AM 37.9 °F - 30.0 °F 73% 30.23 in 10.0 mi Calm Calm - N/A   Clear
1:53 AM 45.0 °F 43.5 °F 30.9 °F 58% 30.22 in 10.0 mi South 3.5 mph - N/A   Clear
2:53 AM 43.0 °F 40.3 °F 30.9 °F 62% 30.23 in 10.0 mi South 4.6 mph - N/A   Clear
3:53 AM 43.0 °F 38.2 °F 30.9 °F 62% 30.22 in 10.0 mi South 8.1 mph - N/A   Clear
4:53 AM 45.0 °F 39.3 °F 30.9 °F 58% 30.22 in 10.0 mi South 11.5 mph - N/A   Clear
5:53 AM 45.0 °F 39.3 °F 30.0 °F 56% 30.23 in 10.0 mi South 11.5 mph - N/A   Clear
6:53 AM 44.1 °F 40.1 °F 28.9 °F 55% 30.24 in 10.0 mi SSW 6.9 mph - N/A   Clear
7:53 AM 46.0 °F 39.9 °F 30.0 °F 54% 30.24 in 10.0 mi South 13.8 mph - N/A   Clear
8:53 AM 48.9 °F - 30.0 °F 48% 30.23 in 10.0 mi South 19.6 mph 27.6 mph N/A   Clear
9:53 AM 53.1 °F - 32.0 °F 45% 30.22 in 10.0 mi South 18.4 mph 25.3 mph N/A   Clear
10:53 AM 57.0 °F - 33.1 °F 40% 30.21 in 10.0 mi SSW 20.7 mph 27.6 mph N/A   Clear
11:53 AM 59.0 °F - 32.0 °F 36% 30.18 in 10.0 mi South 11.5 mph - N/A   Clear
12:53 PM 62.1 °F - 30.9 °F 31% 30.15 in 10.0 mi South 20.7 mph 26.5 mph N/A   Clear
1:53 PM 63.0 °F - 30.9 °F 30% 30.13 in 10.0 mi South 13.8 mph 20.7 mph N/A   Clear
2:53 PM 60.1 °F - 32.0 °F 35% 30.13 in 10.0 mi South 16.1 mph - N/A   Clear
3:53 PM 60.1 °F - 33.1 °F 36% 30.12 in 10.0 mi SSW 16.1 mph - N/A   Clear
4:53 PM 57.0 °F - 32.0 °F 39% 30.11 in 10.0 mi SSE 5.8 mph - N/A   Clear
5:53 PM 55.0 °F - 30.9 °F 40% 30.11 in 10.0 mi SSE 6.9 mph - N/A   Clear
6:53 PM 55.0 °F - 28.9 °F 37% 30.09 in 10.0 mi SSE 10.4 mph - N/A   Clear
7:53 PM 55.0 °F - 28.0 °F 35% 30.09 in 10.0 mi Variable 5.8 mph - N/A   Clear
8:53 PM 53.1 °F - 26.1 °F 35% 30.09 in 10.0 mi SSE 8.1 mph - N/A   Clear
9:53 PM 54.0 °F - 28.0 °F 37% 30.09 in 10.0 mi South 12.7 mph 23.0 mph N/A   Clear
10:53 PM 52.0 °F - 28.9 °F 41% 30.13 in 10.0 mi SSW 10.4 mph - N/A   Clear
11:53 PM 48.9 °F - 30.0 °F 48% 30.14 in 10.0 mi Calm Calm - N/A   Clear